Location: Laas
(43.4693°N, 0.3073°E)
Time: 14:59:08
(UTC+00:00)

Meteor 2-15 - Pass Details

Date: 25 October 2020
Orbit: 935 x 956 km, 82.5° (Epoch: 23 November)

Event Time Altitude Azimuth Distance (km) Brightness Sun altitude
Rises 18:22:34 0° 172° (S) 3,620 7.4 -15.7°
Reaches altitude 10° 18:25:06 10° 168° (SSE) 2,678 6.7 -16.2°
Maximum altitude 18:31:03 55° 92° (E) 1,139 4.5 -17.2°
Drops below altitude 10° 18:37:01 10° 17° (NNE) 2,688 6.6 -18.3°
Sets 18:39:34 0° 13° (NNE) 3,635 7.4 -18.8°
